| time (UTC) | temp C | wind direction | speed KPH | gust KPH | rain 1hr cm | rain 24hr cm | rain mn cm | humidity % | barometer mb |
| 20260507002617 | 20 | 270 | 1.6 | 4.8 | 0.00 | 0.00 | 0.00 | 65 | 1019.4 |
| 20260507002035 | 20 | 225 | 1.6 | 4.8 | 0.00 | 0.00 | 0.00 | 66 | 1019.4 |
| 20260507001516 | 20 | 338 | 1.6 | 4.8 | 0.00 | 0.00 | 0.00 | 65 | 1019.5 |
| 20260507001015 | 20 | 270 | 1.6 | 4.8 | 0.00 | 0.00 | 0.00 | 65 | 1019.5 |
| 20260507000535 | 20 | 248 | 1.6 | 4.8 | 0.00 | 0.00 | 0.00 | 67 | 1019.5 |
| 20260507000015 | 20 | 315 | 3.2 | 6.4 | 0.00 | 0.00 | 0.00 | 64 | 1019.5 |
| 20260506235516 | 20 | 293 | 1.6 | 8.0 | 0.00 | 0.00 | 0.00 | 64 | 1019.7 |
| 20260506235015 | 20 | 270 | 1.6 | 11.3 | 0.00 | 0.00 | 0.00 | 66 | 1019.6 |
| 20260506234515 | 20 | 315 | 3.2 | 11.3 | 0.00 | 0.00 | 0.00 | 64 | 1019.5 |
| 20260506234015 | 20 | 293 | 1.6 | 4.8 | 0.00 | 0.00 | 0.00 | 64 | 1019.6 |
| 20260506233520 | 20 | 203 | 1.6 | 6.4 | 0.00 | 0.00 | 0.00 | 64 | 1019.7 |
| 20260506233015 | 21 | 338 | 3.2 | 8.0 | 0.00 | 0.00 | 0.00 | 63 | 1019.7 |
| 20260506232515 | 21 | 270 | 1.6 | 4.8 | 0.00 | 0.00 | 0.00 | 65 | 1019.7 |
| 20260506232015 | 21 | 203 | 1.6 | 6.4 | 0.00 | 0.00 | 0.00 | 63 | 1019.7 |
| 20260506231515 | 21 | 203 | 1.6 | 4.8 | 0.00 | 0.00 | 0.00 | 63 | 1019.7 |
| 20260506231015 | 21 | 203 | 1.6 | 4.8 | 0.00 | 0.00 | 0.00 | 63 | 1019.8 |
| 20260506230515 | 21 | 180 | 1.6 | 4.8 | 0.00 | 0.00 | 0.00 | 64 | 1019.9 |
| 20260506230016 | 21 | 293 | 1.6 | 6.4 | 0.00 | 0.00 | 0.00 | 64 | 1019.8 |
| 20260506225516 | 21 | 203 | 3.2 | 4.8 | 0.00 | 0.00 | 0.00 | 63 | 1019.9 |
| 20260506225016 | 21 | 203 | 1.6 | 6.4 | 0.00 | 0.00 | 0.00 | 66 | 1019.9 |
| 20260506224516 | 21 | 270 | 1.6 | 4.8 | 0.00 | 0.00 | 0.00 | 65 | 1020.1 |
| 20260506224015 | 21 | 338 | 3.2 | 6.4 | 0.00 | 0.00 | 0.00 | 65 | 1020.2 |
| 20260506223515 | 21 | 203 | 1.6 | 4.8 | 0.00 | 0.00 | 0.00 | 65 | 1020.2 |
| 20260506223015 | 21 | 293 | 1.6 | 8.0 | 0.00 | 0.00 | 0.00 | 65 | 1020.2 |
| 20260506222515 | 21 | 338 | 1.6 | 6.4 | 0.00 | 0.00 | 0.00 | 63 | 1020.4 |
| 20260506222017 | 21 | 338 | 3.2 | 6.4 | 0.00 | 0.00 | 0.00 | 64 | 1020.5 |
| 20260506221517 | 21 | 225 | 1.6 | 6.4 | 0.00 | 0.03 | 0.00 | 65 | 1020.4 |
| 20260506221017 | 21 | 315 | 1.6 | 4.8 | 0.00 | 0.03 | 0.00 | 63 | 1020.6 |
| 20260506220517 | 20 | 203 | 1.6 | 6.4 | 0.00 | 0.03 | 0.00 | 65 | 1020.7 |
| 20260506220017 | 20 | 180 | 1.6 | 8.0 | 0.00 | 0.03 | 0.00 | 68 | 1020.8 |
| 20260506215018 | 20 | 203 | 3.2 | 9.7 | 0.00 | 0.03 | 0.00 | 65 | 1020.9 |
| 20260506214518 | 20 | 248 | 1.6 | 6.4 | 0.00 | 0.03 | 0.00 | 65 | 1020.8 |
| 20260506214017 | 20 | 203 | 3.2 | 6.4 | 0.00 | 0.03 | 0.00 | 66 | 1020.9 |
| 20260506213517 | 20 | 203 | 3.2 | 8.0 | 0.00 | 0.03 | 0.00 | 66 | 1020.8 |
| 20260506213017 | 20 | 203 | 3.2 | 8.0 | 0.00 | 0.03 | 0.00 | 65 | 1020.9 |
| 20260506212522 | 20 | 203 | 3.2 | 6.4 | 0.00 | 0.03 | 0.00 | 66 | 1020.9 |
| 20260506212017 | 20 | 225 | 1.6 | 9.7 | 0.00 | 0.03 | 0.00 | 67 | 1020.9 |
| 20260506211517 | 20 | 203 | 4.8 | 8.0 | 0.00 | 0.03 | 0.00 | 67 | 1020.8 |
| 20260506211138 | 20 | 203 | 3.2 | 9.7 | 0.00 | 0.03 | 0.00 | 66 | 1021.0 |
| 20260506210517 | 20 | 225 | 3.2 | 6.4 | 0.00 | 0.03 | 0.00 | 68 | 1020.9 |
| 20260506210017 | 19 | 203 | 3.2 | 8.0 | 0.00 | 0.03 | 0.00 | 67 | 1020.9 |
| 20260506205518 | 19 | 180 | 3.2 | 8.0 | 0.00 | 0.03 | 0.00 | 68 | 1021.0 |
| 20260506205017 | 19 | 203 | 3.2 | 6.4 | 0.00 | 0.03 | 0.00 | 68 | 1021.0 |
| 20260506204557 | 20 | 180 | 3.2 | 8.0 | 0.00 | 0.03 | 0.00 | 69 | 1021.1 |
| 20260506204017 | 20 | 203 | 1.6 | 8.0 | 0.00 | 0.03 | 0.00 | 67 | 1021.2 |
| 20260506203518 | 19 | 225 | 1.6 | 3.2 | 0.00 | 0.03 | 0.00 | 69 | 1021.3 |
| 20260506203017 | 19 | 225 | 1.6 | 6.4 | 0.00 | 0.03 | 0.00 | 69 | 1021.3 |
| 20260506202517 | 18 | 180 | 3.2 | 9.7 | 0.00 | 0.03 | 0.00 | 70 | 1021.3 |
| 20260506202017 | 18 | 203 | 1.6 | 4.8 | 0.00 | 0.03 | 0.00 | 71 | 1021.3 |
| 20260506201517 | 18 | 203 | 1.6 | 4.8 | 0.00 | 0.03 | 0.00 | 72 | 1021.3 |
| 20260506201017 | 18 | 180 | 3.2 | 6.4 | 0.00 | 0.03 | 0.00 | 71 | 1021.5 |
| 20260506200537 | 18 | 203 | 1.6 | 6.4 | 0.00 | 0.03 | 0.00 | 71 | 1021.6 |
| 20260506200017 | 18 | 180 | 3.2 | 8.0 | 0.00 | 0.03 | 0.00 | 71 | 1021.5 |
| 20260506195517 | 17 | 203 | 1.6 | 4.8 | 0.00 | 0.03 | 0.00 | 72 | 1021.4 |
| 20260506195017 | 17 | 203 | 1.6 | 6.4 | 0.00 | 0.03 | 0.00 | 74 | 1021.5 |
| 20260506194517 | 17 | 180 | 1.6 | 6.4 | 0.00 | 0.03 | 0.00 | 75 | 1021.5 |
| 20260506194017 | 17 | 225 | 1.6 | 4.8 | 0.00 | 0.03 | 0.00 | 74 | 1021.6 |
| 20260506193517 | 17 | 203 | 3.2 | 8.0 | 0.00 | 0.03 | 0.00 | 73 | 1021.5 |
| 20260506193018 | 17 | 225 | 3.2 | 4.8 | 0.00 | 0.03 | 0.00 | 74 | 1021.7 |
| 20260506192517 | 17 | 225 | 3.2 | 8.0 | 0.00 | 0.03 | 0.00 | 73 | 1021.7 |
| 20260506192017 | 17 | 180 | 1.6 | 4.8 | 0.00 | 0.03 | 0.00 | 73 | 1021.8 |
| 20260506191517 | 17 | 203 | 1.6 | 3.2 | 0.00 | 0.03 | 0.00 | 74 | 1021.8 |
| 20260506191017 | 17 | 180 | 3.2 | 6.4 | 0.00 | 0.03 | 0.00 | 74 | 1021.8 |
| 20260506190517 | 17 | 203 | 3.2 | 6.4 | 0.00 | 0.03 | 0.00 | 73 | 1021.9 |
| 20260506190018 | 17 | 203 | 3.2 | 8.0 | 0.00 | 0.03 | 0.00 | 73 | 1021.8 |
| 20260506185517 | 16 | 203 | 1.6 | 4.8 | 0.00 | 0.03 | 0.00 | 75 | 1021.8 |
| 20260506185017 | 16 | 203 | 1.6 | 4.8 | 0.00 | 0.03 | 0.00 | 74 | 1021.8 |
| 20260506184517 | 16 | 180 | 1.6 | 4.8 | 0.00 | 0.03 | 0.00 | 73 | 1021.8 |
| 20260506184017 | 16 | 315 | 1.6 | 6.4 | 0.00 | 0.03 | 0.00 | 74 | 1021.8 |
| 20260506183517 | 16 | 203 | 3.2 | 8.0 | 0.00 | 0.03 | 0.00 | 74 | 1021.9 |
| 20260506183019 | 16 | 225 | 3.2 | 9.7 | 0.00 | 0.03 | 0.00 | 74 | 1021.9 |
| 20260506182538 | 16 | 203 | 1.6 | 6.4 | 0.00 | 0.03 | 0.00 | 76 | 1021.9 |
| 20260506182017 | 15 | 180 | 1.6 | 3.2 | 0.00 | 0.03 | 0.00 | 77 | 1021.9 |
| 20260506181537 | 15 | 203 | 1.6 | 4.8 | 0.00 | 0.03 | 0.00 | 77 | 1021.8 |
| 20260506181037 | 15 | 203 | 1.6 | 3.2 | 0.00 | 0.03 | 0.00 | 78 | 1021.7 |
| 20260506180517 | 15 | 203 | 1.6 | 4.8 | 0.00 | 0.03 | 0.00 | 77 | 1021.8 |
| 20260506180017 | 15 | 203 | 1.6 | 4.8 | 0.00 | 0.03 | 0.00 | 78 | 1021.7 |
| 20260506175517 | 15 | 225 | 1.6 | 4.8 | 0.00 | 0.03 | 0.00 | 78 | 1021.6 |
| 20260506175018 | 15 | 338 | 1.6 | 4.8 | 0.00 | 0.03 | 0.00 | 78 | 1021.7 |
| 20260506174517 | 14 | 0.0 | 3.2 | 0.00 | 0.03 | 0.00 | 81 | 1021.7 | |
| 20260506174037 | 14 | 180 | 1.6 | 4.8 | 0.00 | 0.03 | 0.00 | 80 | 1021.6 |
| 20260506173517 | 14 | 180 | 1.6 | 3.2 | 0.00 | 0.03 | 0.00 | 79 | 1021.7 |
| 20260506173017 | 14 | 225 | 3.2 | 8.0 | 0.00 | 0.03 | 0.00 | 79 | 1021.6 |
| 20260506172522 | 14 | 158 | 1.6 | 8.0 | 0.00 | 0.03 | 0.00 | 81 | 1021.8 |
| 20260506172017 | 14 | 158 | 1.6 | 9.7 | 0.00 | 0.03 | 0.00 | 81 | 1021.7 |
| 20260506171537 | 14 | 203 | 1.6 | 4.8 | 0.00 | 0.03 | 0.00 | 80 | 1021.8 |
| 20260506171017 | 14 | 23 | 1.6 | 3.2 | 0.00 | 0.03 | 0.00 | 80 | 1021.8 |
| 20260506170618 | 14 | 158 | 1.6 | 4.8 | 0.00 | 0.03 | 0.00 | 79 | 1021.8 |
| 20260506170037 | 14 | 225 | 1.6 | 6.4 | 0.00 | 0.03 | 0.00 | 80 | 1021.8 |
| 20260506165517 | 14 | 225 | 1.6 | 8.0 | 0.00 | 0.03 | 0.00 | 80 | 1021.7 |
| 20260506165017 | 13 | 0.0 | 1.6 | 0.00 | 0.03 | 0.00 | 82 | 1021.7 | |
| 20260506164518 | 13 | 135 | 1.6 | 4.8 | 0.00 | 0.03 | 0.00 | 83 | 1021.7 |
| 20260506164017 | 13 | 180 | 1.6 | 6.4 | 0.00 | 0.03 | 0.00 | 83 | 1021.7 |
| 20260506163517 | 13 | 225 | 1.6 | 4.8 | 0.00 | 0.03 | 0.00 | 82 | 1021.7 |
| 20260506163017 | 13 | 203 | 1.6 | 3.2 | 0.00 | 0.03 | 0.00 | 83 | 1021.8 |
| 20260506162516 | 13 | 203 | 1.6 | 4.8 | 0.00 | 0.03 | 0.00 | 86 | 1021.7 |
| 20260506162037 | 12 | 225 | 1.6 | 4.8 | 0.00 | 0.03 | 0.00 | 85 | 1021.7 |
| 20260506161537 | 12 | 293 | 1.6 | 3.2 | 0.00 | 0.03 | 0.00 | 85 | 1021.7 |
| 20260506161037 | 12 | 225 | 1.6 | 4.8 | 0.00 | 0.03 | 0.00 | 85 | 1021.7 |
| 20260506160542 | 12 | 248 | 1.6 | 4.8 | 0.00 | 0.03 | 0.00 | 87 | 1021.6 |
| 20260506160017 | 12 | 248 | 1.6 | 4.8 | 0.00 | 0.03 | 0.00 | 86 | 1021.6 |
| 20260506155516 | 12 | 203 | 1.6 | 4.8 | 0.00 | 0.03 | 0.00 | 86 | 1021.6 |
| 20260506155017 | 12 | 180 | 1.6 | 6.4 | 0.00 | 0.03 | 0.00 | 87 | 1021.5 |
| 20260506154517 | 12 | 180 | 1.6 | 4.8 | 0.00 | 0.03 | 0.00 | 88 | 1021.6 |
| 20260506154017 | 11 | 203 | 1.6 | 4.8 | 0.00 | 0.03 | 0.00 | 88 | 1021.6 |
| 20260506153516 | 11 | 0.0 | 1.6 | 0.00 | 0.03 | 0.00 | 90 | 1021.5 | |
| 20260506153017 | 11 | 0.0 | 4.8 | 0.00 | 0.03 | 0.00 | 90 | 1021.5 | |
| 20260506152518 | 11 | 158 | 1.6 | 6.4 | 0.00 | 0.03 | 0.00 | 89 | 1021.4 |
| 20260506152017 | 11 | 180 | 1.6 | 3.2 | 0.00 | 0.05 | 0.00 | 90 | 1021.5 |
| 20260506151516 | 11 | 225 | 1.6 | 3.2 | 0.00 | 0.05 | 0.00 | 91 | 1021.5 |
| 20260506151057 | 11 | 0.0 | 1.6 | 0.00 | 0.05 | 0.00 | 91 | 1021.4 | |
| 20260506150517 | 10 | 0.0 | 1.6 | 0.00 | 0.05 | 0.00 | 92 | 1021.3 | |
| 20260506150037 | 10 | 0.0 | 1.6 | 0.00 | 0.05 | 0.00 | 92 | 1021.4 | |
| 20260506145517 | 10 | 0.0 | 1.6 | 0.00 | 0.08 | 0.00 | 91 | 1021.4 | |
| 20260506145016 | 10 | 0.0 | 1.6 | 0.00 | 0.08 | 0.00 | 91 | 1021.4 | |
| 20260506144517 | 10 | 0.0 | 0.0 | 0.00 | 0.08 | 0.00 | 91 | 1021.3 | |
| 20260506144016 | 10 | 0.0 | 1.6 | 0.00 | 0.08 | 0.00 | 91 | 1021.3 | |
| 20260506143517 | 10 | 0.0 | 0.0 | 0.00 | 0.08 | 0.00 | 91 | 1021.3 | |
| 20260506143016 | 10 | 0.0 | 1.6 | 0.00 | 0.08 | 0.00 | 92 | 1021.2 | |
| 20260506142516 | 10 | 0.0 | 0.0 | 0.00 | 0.08 | 0.00 | 92 | 1021.2 | |
| 20260506142016 | 10 | 0.0 | 0.0 | 0.00 | 0.08 | 0.00 | 92 | 1021.1 | |
| 20260506141537 | 10 | 0.0 | 0.0 | 0.00 | 0.08 | 0.00 | 91 | 1021.0 | |
| 20260506141017 | 10 | 0.0 | 0.0 | 0.00 | 0.08 | 0.00 | 92 | 1020.9 | |
| 20260506140516 | 10 | 0.0 | 1.6 | 0.00 | 0.08 | 0.00 | 91 | 1020.9 | |
| 20260506140016 | 10 | 0.0 | 0.0 | 0.00 | 0.08 | 0.00 | 92 | 1020.9 | |
| 20260506135517 | 10 | 0.0 | 0.0 | 0.00 | 0.08 | 0.00 | 92 | 1020.8 | |
| 20260506135016 | 10 | 0.0 | 0.0 | 0.00 | 0.08 | 0.00 | 92 | 1020.7 | |
| 20260506134516 | 10 | 0.0 | 0.0 | 0.00 | 0.08 | 0.00 | 92 | 1020.7 | |
| 20260506134042 | 10 | 0.0 | 1.6 | 0.00 | 0.08 | 0.00 | 92 | 1020.8 | |
| 20260506133538 | 10 | 0.0 | 1.6 | 0.00 | 0.08 | 0.00 | 91 | 1020.7 | |
| 20260506133036 | 10 | 0.0 | 0.0 | 0.00 | 0.08 | 0.00 | 91 | 1020.7 | |
| 20260506132518 | 10 | 0.0 | 0.0 | 0.00 | 0.08 | 0.00 | 91 | 1020.7 | |
| 20260506132016 | 10 | 0.0 | 1.6 | 0.00 | 0.08 | 0.00 | 90 | 1020.6 | |
| 20260506131516 | 10 | 0.0 | 0.0 | 0.00 | 0.08 | 0.00 | 90 | 1020.6 | |
| 20260506131016 | 10 | 0.0 | 0.0 | 0.00 | 0.08 | 0.00 | 90 | 1020.6 | |
| 20260506130521 | 10 | 0.0 | 0.0 | 0.00 | 0.08 | 0.00 | 90 | 1020.6 | |
| 20260506130016 | 10 | 0.0 | 0.0 | 0.00 | 0.08 | 0.00 | 90 | 1020.5 | |
| 20260506125516 | 10 | 0.0 | 0.0 | 0.00 | 0.08 | 0.00 | 90 | 1020.4 | |
| 20260506125017 | 10 | 0.0 | 0.0 | 0.00 | 0.08 | 0.00 | 90 | 1020.5 | |
| 20260506124517 | 10 | 0.0 | 0.0 | 0.00 | 0.08 | 0.00 | 90 | 1020.4 | |
| 20260506124016 | 10 | 0.0 | 0.0 | 0.00 | 0.08 | 0.00 | 90 | 1020.4 | |
| 20260506123516 | 10 | 0.0 | 0.0 | 0.00 | 0.08 | 0.00 | 90 | 1020.4 | |
| 20260506123016 | 10 | 0.0 | 0.0 | 0.00 | 0.08 | 0.00 | 90 | 1020.4 | |
| 20260506122516 | 10 | 0.0 | 1.6 | 0.00 | 0.08 | 0.00 | 90 | 1020.5 | |
| 20260506122037 | 10 | 0.0 | 1.6 | 0.00 | 0.08 | 0.00 | 90 | 1020.3 | |
| 20260506121516 | 10 | 0.0 | 1.6 | 0.00 | 0.08 | 0.00 | 90 | 1020.2 | |
| 20260506121016 | 10 | 0.0 | 1.6 | 0.00 | 0.08 | 0.00 | 90 | 1020.3 | |
| 20260506120517 | 10 | 0.0 | 0.0 | 0.00 | 0.08 | 0.00 | 90 | 1020.3 | |
| 20260506120017 | 10 | 0.0 | 0.0 | 0.00 | 0.08 | 0.00 | 90 | 1020.2 | |
| 20260506115536 | 10 | 0.0 | 1.6 | 0.00 | 0.08 | 0.00 | 90 | 1020.2 | |
| 20260506115016 | 10 | 0.0 | 0.0 | 0.00 | 0.08 | 0.00 | 90 | 1020.2 | |
| 20260506114516 | 10 | 0.0 | 0.0 | 0.00 | 0.08 | 0.00 | 90 | 1020.3 | |
| 20260506114016 | 10 | 0.0 | 1.6 | 0.00 | 0.08 | 0.00 | 90 | 1020.3 | |
| 20260506113521 | 10 | 0.0 | 1.6 | 0.00 | 0.08 | 0.00 | 90 | 1020.1 | |
| 20260506113016 | 10 | 0.0 | 0.0 | 0.00 | 0.08 | 0.00 | 90 | 1020.0 | |
| 20260506112516 | 10 | 0.0 | 1.6 | 0.00 | 0.08 | 0.00 | 90 | 1020.0 | |
| 20260506112016 | 10 | 0.0 | 1.6 | 0.00 | 0.08 | 0.00 | 90 | 1020.0 | |
| 20260506111516 | 10 | 0.0 | 0.0 | 0.00 | 0.08 | 0.00 | 90 | 1019.9 | |
| 20260506111016 | 10 | 0.0 | 0.0 | 0.00 | 0.08 | 0.00 | 90 | 1019.9 | |
| 20260506110516 | 10 | 0.0 | 1.6 | 0.00 | 0.08 | 0.00 | 90 | 1019.9 | |
| 20260506110016 | 10 | 0.0 | 1.6 | 0.00 | 0.08 | 0.00 | 90 | 1019.8 | |
| 20260506105536 | 10 | 0.0 | 1.6 | 0.00 | 0.08 | 0.00 | 90 | 1019.8 | |
| 20260506105021 | 10 | 0.0 | 0.0 | 0.00 | 0.08 | 0.00 | 90 | 1019.9 | |
| 20260506104516 | 10 | 0.0 | 1.6 | 0.00 | 0.08 | 0.00 | 90 | 1019.8 | |
| 20260506104036 | 10 | 0.0 | 0.0 | 0.00 | 0.08 | 0.00 | 90 | 1019.8 | |
| 20260506103516 | 10 | 0.0 | 1.6 | 0.00 | 0.08 | 0.00 | 90 | 1019.7 | |
| 20260506103016 | 10 | 0.0 | 0.0 | 0.00 | 0.08 | 0.00 | 90 | 1019.8 | |
| 20260506102538 | 10 | 0.0 | 0.0 | 0.00 | 0.08 | 0.00 | 90 | 1019.7 | |
| 20260506102016 | 10 | 0.0 | 0.0 | 0.00 | 0.08 | 0.00 | 90 | 1019.7 | |
| 20260506101517 | 10 | 0.0 | 0.0 | 0.00 | 0.08 | 0.00 | 90 | 1019.6 | |
| 20260506101016 | 10 | 0.0 | 1.6 | 0.00 | 0.08 | 0.00 | 90 | 1019.7 | |
| 20260506100536 | 10 | 0.0 | 1.6 | 0.00 | 0.08 | 0.00 | 90 | 1019.7 | |
| 20260506100036 | 10 | 0.0 | 1.6 | 0.00 | 0.08 | 0.00 | 90 | 1019.6 | |
| 20260506095517 | 10 | 0.0 | 1.6 | 0.00 | 0.08 | 0.00 | 91 | 1019.6 | |
| 20260506095016 | 10 | 0.0 | 1.6 | 0.00 | 0.08 | 0.00 | 91 | 1019.6 | |
| 20260506094516 | 10 | 0.0 | 0.0 | 0.00 | 0.08 | 0.00 | 91 | 1019.7 | |
| 20260506094016 | 10 | 0.0 | 0.0 | 0.00 | 0.08 | 0.00 | 91 | 1019.6 | |
| 20260506093618 | 10 | 0.0 | 1.6 | 0.00 | 0.08 | 0.00 | 91 | 1019.6 | |
| 20260506093016 | 10 | 0.0 | 0.0 | 0.00 | 0.08 | 0.00 | 91 | 1019.6 | |
| 20260506092517 | 10 | 0.0 | 0.0 | 0.00 | 0.08 | 0.00 | 91 | 1019.7 | |
| 20260506092016 | 10 | 0.0 | 0.0 | 0.00 | 0.08 | 0.00 | 91 | 1019.6 | |
| 20260506091516 | 10 | 0.0 | 0.0 | 0.00 | 0.10 | 0.00 | 90 | 1019.6 | |
| 20260506091016 | 10 | 0.0 | 0.0 | 0.00 | 0.10 | 0.00 | 90 | 1019.6 | |
| 20260506090516 | 10 | 0.0 | 0.0 | 0.00 | 0.10 | 0.00 | 90 | 1019.6 | |
| 20260506090016 | 10 | 0.0 | 1.6 | 0.00 | 0.10 | 0.00 | 90 | 1019.6 | |
| 20260506085521 | 10 | 0.0 | 1.6 | 0.00 | 0.10 | 0.00 | 90 | 1019.6 | |
| 20260506085016 | 10 | 0.0 | 0.0 | 0.00 | 0.13 | 0.00 | 91 | 1019.6 | |
| 20260506084516 | 10 | 0.0 | 0.0 | 0.00 | 0.13 | 0.00 | 91 | 1019.7 | |
| 20260506084016 | 10 | 0.0 | 0.0 | 0.00 | 0.13 | 0.00 | 91 | 1019.7 | |
| 20260506083516 | 10 | 0.0 | 0.0 | 0.00 | 0.13 | 0.00 | 91 | 1019.7 | |
| 20260506083016 | 10 | 0.0 | 0.0 | 0.00 | 0.13 | 0.00 | 91 | 1019.7 | |
| 20260506082536 | 10 | 0.0 | 1.6 | 0.00 | 0.13 | 0.00 | 91 | 1019.7 | |
| 20260506082016 | 10 | 0.0 | 1.6 | 0.00 | 0.13 | 0.00 | 91 | 1019.8 | |
| 20260506081516 | 10 | 0.0 | 1.6 | 0.00 | 0.15 | 0.00 | 91 | 1019.9 | |
| 20260506081016 | 10 | 0.0 | 1.6 | 0.00 | 0.20 | 0.00 | 91 | 1019.9 | |
| 20260506080516 | 10 | 0.0 | 0.0 | 0.00 | 0.23 | 0.00 | 91 | 1019.8 | |
| 20260506073516 | 10 | 0.0 | 0.0 | 0.00 | 0.28 | 0.00 | 91 | 1019.4 | |
| 20260506073016 | 10 | 0.0 | 1.6 | 0.00 | 0.30 | 0.00 | 91 | 1019.5 | |
| 20260506072536 | 10 | 0.0 | 0.0 | 0.00 | 0.30 | 0.00 | 91 | 1019.4 | |
| 20260506072017 | 10 | 0.0 | 0.0 | 0.00 | 0.33 | 0.00 | 90 | 1019.3 | |
| 20260506071516 | 10 | 0.0 | 1.6 | 0.00 | 0.33 | 0.00 | 90 | 1019.3 | |
| 20260506071016 | 10 | 0.0 | 1.6 | 0.00 | 0.36 | 0.00 | 90 | 1019.2 | |
| 20260506070516 | 11 | 0.0 | 1.6 | 0.00 | 0.38 | 0.00 | 91 | 1019.2 | |
| 20260506062517 | 11 | 0.0 | 0.0 | 0.00 | 0.41 | 0.38 | 91 | 1018.9 | |
| 20260506062017 | 11 | 0.0 | 4.8 | 0.00 | 0.43 | 0.38 | 91 | 1019.0 | |
| 20260506061516 | 11 | 0.0 | 3.2 | 0.00 | 0.43 | 0.38 | 91 | 1018.9 | |
| 20260506061016 | 11 | 0.0 | 1.6 | 0.00 | 0.43 | 0.38 | 91 | 1019.0 | |
| 20260506060516 | 11 | 0.0 | 1.6 | 0.00 | 0.43 | 0.38 | 91 | 1019.0 | |
| 20260506051016 | 11 | 0.0 | 1.6 | 0.00 | 0.48 | 0.38 | 89 | 1018.7 | |
| 20260506050556 | 11 | 0.0 | 1.6 | 0.00 | 0.48 | 0.38 | 89 | 1018.7 | |
| 20260506045016 | 11 | 0.0 | 1.6 | 0.00 | 0.53 | 0.38 | 88 | 1018.5 | |
| 20260506044515 | 11 | 0.0 | 1.6 | 0.00 | 0.53 | 0.38 | 88 | 1018.5 | |
| 20260506044016 | 11 | 0.0 | 1.6 | 0.00 | 0.53 | 0.38 | 87 | 1018.4 | |
| 20260506043516 | 11 | 0.0 | 1.6 | 0.00 | 0.53 | 0.38 | 87 | 1018.2 | |
| 20260506043017 | 11 | 0.0 | 0.0 | 0.00 | 0.56 | 0.38 | 87 | 1018.3 | |
| 20260506042516 | 11 | 0.0 | 0.0 | 0.00 | 0.56 | 0.38 | 87 | 1018.3 | |
| 20260506042015 | 11 | 0.0 | 1.6 | 0.00 | 0.56 | 0.38 | 87 | 1018.2 | |
| 20260506041537 | 11 | 0.0 | 1.6 | 0.00 | 0.56 | 0.38 | 86 | 1018.1 | |
| 20260506041015 | 11 | 0.0 | 1.6 | 0.00 | 0.56 | 0.38 | 87 | 1018.2 | |
| 20260506040515 | 11 | 0.0 | 0.0 | 0.00 | 0.56 | 0.38 | 87 | 1018.1 | |
| 20260506040015 | 11 | 0.0 | 3.2 | 0.00 | 0.56 | 0.38 | 87 | 1018.0 | |
| 20260506035516 | 11 | 0.0 | 3.2 | 0.00 | 0.56 | 0.38 | 87 | 1017.9 | |
| 20260506035015 | 11 | 0.0 | 3.2 | 0.00 | 0.56 | 0.38 | 87 | 1017.9 | |
| 20260506034516 | 11 | 180 | 1.6 | 3.2 | 0.00 | 0.56 | 0.38 | 86 | 1017.7 |
| 20260506034036 | 11 | 0.0 | 3.2 | 0.00 | 0.56 | 0.38 | 86 | 1017.7 | |
| 20260506033520 | 11 | 0.0 | 4.8 | 0.00 | 0.56 | 0.38 | 85 | 1017.6 | |
| 20260506033016 | 11 | 180 | 1.6 | 3.2 | 0.00 | 0.56 | 0.38 | 85 | 1017.5 |
| 20260506032516 | 12 | 203 | 1.6 | 4.8 | 0.00 | 0.56 | 0.38 | 85 | 1017.4 |
| 20260506032015 | 12 | 203 | 1.6 | 4.8 | 0.00 | 0.56 | 0.38 | 86 | 1017.4 |
| 20260506031516 | 12 | 180 | 1.6 | 4.8 | 0.00 | 0.56 | 0.38 | 85 | 1017.3 |
| 20260506031016 | 12 | 203 | 1.6 | 4.8 | 0.00 | 0.56 | 0.38 | 86 | 1017.3 |
| 20260506030515 | 12 | 0.0 | 1.6 | 0.00 | 0.56 | 0.38 | 85 | 1017.2 | |
| 20260506030016 | 12 | 203 | 1.6 | 3.2 | 0.00 | 0.56 | 0.38 | 85 | 1017.1 |
| 20260506025515 | 12 | 180 | 1.6 | 4.8 | 0.00 | 0.56 | 0.38 | 85 | 1017.1 |
| 20260506025015 | 12 | 225 | 1.6 | 3.2 | 0.00 | 0.56 | 0.38 | 84 | 1017.2 |
| 20260506024516 | 12 | 203 | 1.6 | 3.2 | 0.00 | 0.56 | 0.38 | 84 | 1017.1 |
| 20260506024015 | 12 | 203 | 1.6 | 4.8 | 0.00 | 0.56 | 0.38 | 83 | 1017.2 |
| 20260506023540 | 12 | 203 | 1.6 | 4.8 | 0.00 | 0.56 | 0.38 | 83 | 1017.1 |
| 20260506023035 | 12 | 180 | 1.6 | 6.4 | 0.00 | 0.56 | 0.38 | 82 | 1017.2 |
| 20260506022515 | 12 | 203 | 1.6 | 4.8 | 0.00 | 0.56 | 0.38 | 83 | 1017.1 |
| 20260506022016 | 12 | 180 | 1.6 | 4.8 | 0.00 | 0.56 | 0.38 | 82 | 1016.9 |
| 20260506021535 | 12 | 203 | 3.2 | 6.4 | 0.00 | 0.56 | 0.38 | 82 | 1016.9 |
| 20260506021016 | 12 | 203 | 1.6 | 4.8 | 0.00 | 0.56 | 0.38 | 81 | 1016.8 |
| 20260506020516 | 12 | 180 | 3.2 | 8.0 | 0.00 | 0.56 | 0.38 | 81 | 1016.7 |
| 20260506020015 | 12 | 203 | 3.2 | 8.0 | 0.00 | 0.56 | 0.38 | 81 | 1016.7 |
| 20260506015555 | 13 | 203 | 1.6 | 3.2 | 0.00 | 0.56 | 0.38 | 82 | 1016.8 |
| 20260506015015 | 13 | 180 | 1.6 | 4.8 | 0.00 | 0.56 | 0.38 | 82 | 1016.7 |
| 20260506014515 | 13 | 0.0 | 3.2 | 0.00 | 0.56 | 0.38 | 83 | 1016.7 | |
| 20260506014016 | 13 | 203 | 1.6 | 6.4 | 0.00 | 0.56 | 0.38 | 81 | 1016.6 |
| 20260506013515 | 13 | 0.0 | 4.8 | 0.00 | 0.56 | 0.38 | 82 | 1016.7 | |
| 20260506013015 | 13 | 225 | 1.6 | 3.2 | 0.00 | 0.56 | 0.38 | 83 | 1016.7 |
| 20260506012515 | 13 | 203 | 1.6 | 6.4 | 0.00 | 0.56 | 0.38 | 83 | 1016.7 |
| 20260506012016 | 13 | 203 | 1.6 | 4.8 | 0.00 | 0.56 | 0.38 | 82 | 1016.7 |
| 20260506011516 | 13 | 203 | 1.6 | 6.4 | 0.00 | 0.56 | 0.38 | 82 | 1016.7 |
| 20260506011035 | 13 | 203 | 1.6 | 4.8 | 0.00 | 0.56 | 0.38 | 81 | 1016.7 |
| 20260506010515 | 13 | 225 | 1.6 | 4.8 | 0.00 | 0.56 | 0.38 | 82 | 1016.7 |
| 20260506010015 | 13 | 203 | 1.6 | 6.4 | 0.00 | 0.56 | 0.38 | 82 | 1016.6 |
| 20260506005516 | 13 | 0.0 | 3.2 | 0.00 | 0.56 | 0.38 | 82 | 1016.6 | |
| 20260506005015 | 13 | 180 | 1.6 | 4.8 | 0.00 | 0.56 | 0.38 | 82 | 1016.6 |
| 20260506004516 | 13 | 0.0 | 1.6 | 0.00 | 0.56 | 0.38 | 83 | 1016.7 | |
| 20260506004015 | 13 | 0.0 | 3.2 | 0.00 | 0.56 | 0.38 | 82 | 1016.7 | |
| 20260506003517 | 13 | 0.0 | 3.2 | 0.00 | 0.56 | 0.38 | 80 | 1016.6 | |
| 20260506003018 | 13 | 293 | 1.6 | 4.8 | 0.00 | 0.56 | 0.38 | 81 | 1016.6 |